Weather in Gaspra

Russia / Republic of Crimea     44˚25′48″N   34˚06′20″E
temp.,
°C
wind,
m/s
gust,
m/s
humid.,
%
clouds,
%
prec.,
mm/h
press.,
hPa
HPBL,
m
3 december, thu
thu300:00+6˚ese239799 0.2 1023185
03:00+6˚ese239594 0.2 1023121
06:00+5˚ese239385 0.4 1023103
09:00+6˚ese238992 0.6 1023156
12:00+8˚ese337869 0.0 1023326
15:00+9˚ese237351 0.1 1022458
18:00+6˚e23903 0.0 102260
21:00+5˚ene33881 0.0 102283
4 december, fri
fri400:00+5˚e34810 0.0 102267
03:00+5˚ene34890 0.0 102175
06:00+5˚ene34890 0.0 102085
09:00+6˚ene46921 0.0 1020150
12:00+10˚e46733 0.0 1020352
15:00+10˚e45632 0.0 1019332
18:00+7˚ene57880 0.0 1020190
21:00+6˚ene47895 0.0 1020195
5 december, sat
sat500:00+6˚ene45790 0.0 1020117
03:00+6˚ene45760 0.0 102086
06:00+6˚ene46750 0.0 102091
09:00+6˚ene45720 0.0 1021106
12:00+10˚ene34570 0.0 1021211
15:00+10˚ene24610 0.0 1021443
18:00+5˚ene35850 0.0 1021129
21:00+3˚ene45854 0.0 1022110
6 december, sun
sun600:00+3˚ne23860 0.0 102283
03:00+1˚ne24931 0.0 102388
06:00+1˚ne239430 0.0 102284
09:00+1˚ne239319 0.0 102382
12:00+5˚ene23730 0.0 1023324
15:00+5˚ene23740 0.0 1022378
18:00+1˚ene46924 0.0 1022202
21:00+1˚ene468821 0.0 1022166
7 december, mon
mon700:00+1˚ene46860 0.0 1023118
03:00ene45890 0.0 1023101
06:00ene34870 0.0 102279
09:00+1˚ene35750 0.0 102290
12:00+6˚ene34550 0.0 1022198
15:00+6˚ene34580 0.0 1021223
18:00+2˚ene46730 0.0 1021128
21:00+3˚e58870 0.0 1021225